Retour au catalogue

STARLINK-36213

ActifCommunicationsVLEO
NORAD 67212·PAYLOAD·🇺🇸 United States

Lancé Dec 17, 2025 depuis Vandenberg Space Force Base

Loading…

Prochains Passages (prochaines 24 heures)

TLE

FraisSource: CelesTrak SupGP

Époque: Sep 14, 2026, 14:36 UTC

1 67212C 25304W   26257.60881944 -.00047617  00000+0 -39900-2 0  2570
2 67212  70.0016  58.0246 0002866 266.5147 155.2337 14.98359559    17

Suivez STARLINK-36213 en temps réel avec AllMySat

Download on the App Store